Location: Cactus School
(34.5700°N, 118.0931°W)
Time: 10:06:22
(UTC-08:00)

Tiros 1 - Pass Details

Date: 25 November 2019
Orbit: 630 x 664 km, 48.4° (Epoch: 04 December)

Event Time Altitude Azimuth Distance (km) Brightness Sun altitude
Rises 18:03:28 0° 305° (NW) 2,921 11.1 -16.4°
Reaches altitude 10° 18:05:48 10° 304° (WNW) 2,014 10.3 -16.9°
Maximum altitude 18:10:24 70° 220° (SW) 675 7.3 -17.8°
Enters shadow 18:14:17 15° 139° (SE) 1,734 9.1 -18.6°
Drops below altitude 10° 18:15:02 10° 137° (SE) 2,023 - -18.7°
Sets 18:17:22 0° 135° (SE) 2,935 - -19.2°
